ピメンテル彗星

P/2020 G1 ( Pimentel )

English version
Home page
Updated on June 29, 2020

---------------------------------------------------------------------

・ プロフィール

発見日 2020年4月13日
発見光度 15.2等
発見者 Eduardo Pimentel (Southern Observatory for Near Earth Research (SONEAR) at Oliveira, Brazil)

・ 写真集

・ 軌道要素

Epoch 2020 Mar. 12.0 TT = JDT 2458920.5
T 2020 Mar. 17.41503 TT                                 Rudenko
q   0.5058594            (2000.0)            P               Q
n   0.14362260     Peri.  207.66003     +0.05988575     -0.95965718
a   3.6112221      Node   240.09668     +0.96435439     +0.12668459
e   0.8599202      Incl.   18.47631     +0.25774853     -0.25101617
P   6.86
From 374 observations 2020 Apr. 13-June 16, mean residual 0".6.

・ 星図

・ 光度変化

        m1 = 17.0 + 5 logΔ + 10.0 log r

---------------------------------------------------------------------

軌道要素はM.P.E.C. 2020-M114に掲載されたものです。
星図はステラナビゲータ Ver.10 (アストロアーツ) で作成したものです。
光度グラフはComet for Windowsで作成したものです。

---------------------------------------------------------------------

Copyright(C) Seiichi Yoshida (comet@aerith.net). All rights reserved.